Time,TemperatureF,DewpointF,PressureIn,WindDirection,WindDirectionDegrees,WindSpeedMPH,WindSpeedGustMPH,Humidity,HourlyPrecipIn,Conditions,Clouds,dailyrainin,SoftwareType,DateUTC
2013-02-19 00:00:00,22.7,-10.5,30.19,West,266,6.0,6.0,22,0.00,,,0.00,Wunderground v.1.15,2013-02-19 05:00:00,
2013-02-19 00:05:00,22.8,-10.4,30.19,WSW,241,6.0,6.0,22,0.00,,,0.00,Wunderground v.1.15,2013-02-19 05:05:00,
2013-02-19 00:10:00,22.6,-10.6,30.19,WSW,251,5.0,5.0,22,0.00,,,0.00,Wunderground v.1.15,2013-02-19 05:10:00,
2013-02-19 00:15:00,22.7,-10.5,30.19,WSW,238,6.0,6.0,22,0.00,,,0.00,Wunderground v.1.15,2013-02-19 05:15:00,
2013-02-19 00:20:00,22.8,-10.4,30.19,SW,227,6.0,6.0,22,0.00,,,0.00,Wunderground v.1.15,2013-02-19 05:20:00,
2013-02-19 00:25:00,23.1,-11.1,30.19,WSW,247,7.0,9.0,21,0.00,,,0.00,Wunderground v.1.15,2013-02-19 05:25:00,
2013-02-19 00:30:00,22.7,-10.5,30.19,WSW,247,8.0,13.0,22,0.00,,,0.00,Wunderground v.1.15,2013-02-19 05:30:00,
2013-02-19 00:35:00,22.3,-10.0,30.20,WSW,245,8.0,13.0,23,0.00,,,0.00,Wunderground v.1.15,2013-02-19 05:35:00,
2013-02-19 00:40:00,22.0,-10.2,30.20,SW,234,7.0,7.0,23,0.00,,,0.00,Wunderground v.1.15,2013-02-19 05:40:00,
2013-02-19 00:45:00,22.0,-11.1,30.20,WSW,257,7.0,7.0,22,0.00,,,0.00,Wunderground v.1.15,2013-02-19 05:45:00,
2013-02-19 00:55:00,21.8,-11.3,30.21,West,259,9.0,13.0,22,0.00,,,0.00,Wunderground v.1.15,2013-02-19 05:55:00,
2013-02-19 01:00:00,21.7,-12.3,30.20,West,261,9.0,9.0,21,0.00,,,0.00,Wunderground v.1.15,2013-02-19 06:00:00,
2013-02-19 01:05:00,21.5,-11.6,30.21,WSW,257,9.0,10.0,22,0.00,,,0.00,Wunderground v.1.15,2013-02-19 06:05:00,
2013-02-19 01:10:00,21.5,-10.7,30.20,WSW,251,8.0,11.0,23,0.00,,,0.00,Wunderground v.1.15,2013-02-19 06:10:00,
2013-02-19 01:15:00,21.3,-10.8,30.20,SW,223,7.0,11.0,23,0.00,,,0.00,Wunderground v.1.15,2013-02-19 06:15:00,
2013-02-19 01:20:00,21.3,-10.8,30.20,SW,222,7.0,7.0,23,0.00,,,0.00,Wunderground v.1.15,2013-02-19 06:20:00,
2013-02-19 01:25:00,21.4,-10.7,30.21,WSW,250,8.0,10.0,23,0.00,,,0.00,Wunderground v.1.15,2013-02-19 06:25:00,
2013-02-19 01:30:00,21.3,-10.8,30.21,WSW,253,6.0,11.0,23,0.00,,,0.00,Wunderground v.1.15,2013-02-19 06:30:00,
2013-02-19 01:35:00,21.3,-11.7,30.21,SW,236,6.0,11.0,22,0.00,,,0.00,Wunderground v.1.15,2013-02-19 06:35:00,
2013-02-19 01:40:00,21.3,-10.8,30.22,SW,234,5.0,8.0,23,0.00,,,0.00,Wunderground v.1.15,2013-02-19 06:40:00,
2013-02-19 01:45:00,21.1,-11.0,30.22,WSW,237,5.0,8.0,23,0.00,,,0.00,Wunderground v.1.15,2013-02-19 06:45:00,
2013-02-19 01:50:00,20.9,-10.3,30.22,WSW,246,5.0,6.0,24,0.00,,,0.00,Wunderground v.1.15,2013-02-19 06:50:00,
2013-02-19 01:55:00,20.6,-10.6,30.22,SSW,212,5.0,6.0,24,0.00,,,0.00,Wunderground v.1.15,2013-02-19 06:55:00,
2013-02-19 02:00:00,20.3,-10.0,30.22,SW,224,6.0,6.0,25,0.00,,,0.00,Wunderground v.1.15,2013-02-19 07:00:00,
2013-02-19 02:05:00,20.1,-10.2,30.23,WSW,250,7.0,7.0,25,0.00,,,0.00,Wunderground v.1.15,2013-02-19 07:05:00,
2013-02-19 02:10:00,19.9,-9.5,30.23,SW,234,7.0,7.0,26,0.00,,,0.00,Wunderground v.1.15,2013-02-19 07:10:00,
2013-02-19 02:15:00,19.7,-9.7,30.23,SW,227,6.0,7.0,26,0.00,,,0.00,Wunderground v.1.15,2013-02-19 07:15:00,
2013-02-19 02:20:00,19.7,-9.7,30.23,WSW,239,6.0,6.0,26,0.00,,,0.00,Wunderground v.1.15,2013-02-19 07:20:00,
2013-02-19 02:25:00,19.6,-9.8,30.23,SW,236,5.0,6.0,26,0.00,,,0.00,Wunderground v.1.15,2013-02-19 07:25:00,
2013-02-19 02:30:00,19.7,-9.7,30.24,WSW,247,4.0,4.0,26,0.00,,,0.00,Wunderground v.1.15,2013-02-19 07:30:00,
2013-02-19 02:35:00,19.7,-9.7,30.24,WSW,237,5.0,5.0,26,0.00,,,0.00,Wunderground v.1.15,2013-02-19 07:35:00,
2013-02-19 02:40:00,19.7,-9.7,30.24,SW,226,5.0,5.0,26,0.00,,,0.00,Wunderground v.1.15,2013-02-19 07:40:00,
2013-02-19 02:45:00,19.5,-9.9,30.25,SW,223,5.0,5.0,26,0.00,,,0.00,Wunderground v.1.15,2013-02-19 07:45:00,
2013-02-19 02:50:00,19.5,-9.9,30.25,SW,216,5.0,5.0,26,0.00,,,0.00,Wunderground v.1.15,2013-02-19 07:50:00,
2013-02-19 02:55:00,19.5,-9.9,30.25,SW,226,5.0,10.0,26,0.00,,,0.00,Wunderground v.1.15,2013-02-19 07:55:00,
2013-02-19 03:00:00,19.6,-9.8,30.25,WSW,239,6.0,7.0,26,0.00,,,0.00,Wunderground v.1.15,2013-02-19 08:00:00,
2013-02-19 03:05:00,19.7,-9.7,30.25,SW,224,6.0,7.0,26,0.00,,,0.00,Wunderground v.1.15,2013-02-19 08:05:00,
2013-02-19 03:10:00,19.9,-10.3,30.25,SW,233,6.0,8.0,25,0.00,,,0.00,Wunderground v.1.15,2013-02-19 08:10:00,
2013-02-19 03:15:00,20.0,-10.3,30.25,WSW,243,5.0,8.0,25,0.00,,,0.00,Wunderground v.1.15,2013-02-19 08:15:00,
2013-02-19 03:20:00,20.1,-10.2,30.25,WSW,252,5.0,5.0,25,0.00,,,0.00,Wunderground v.1.15,2013-02-19 08:20:00,
2013-02-19 03:25:00,20.3,-10.0,30.25,SW,225,5.0,5.0,25,0.00,,,0.00,Wunderground v.1.15,2013-02-19 08:25:00,
2013-02-19 03:35:00,20.7,-10.5,30.25,WSW,238,5.0,9.0,24,0.00,,,0.00,Wunderground v.1.15,2013-02-19 08:35:00,
2013-02-19 03:40:00,20.9,-10.3,30.25,WSW,239,5.0,5.0,24,0.00,,,0.00,Wunderground v.1.15,2013-02-19 08:40:00,
2013-02-19 03:45:00,21.1,-11.0,30.25,WSW,252,5.0,6.0,23,0.00,,,0.00,Wunderground v.1.15,2013-02-19 08:45:00,
2013-02-19 03:50:00,21.2,-9.2,30.25,WSW,246,6.0,9.0,25,0.00,,,0.00,Wunderground v.1.15,2013-02-19 08:50:00,
2013-02-19 04:00:00,22.0,-10.2,30.25,SW,225,6.0,6.0,23,0.00,,,0.00,Wunderground v.1.15,2013-02-19 09:00:00,
2013-02-19 04:05:00,22.4,-10.8,30.25,SSW,202,6.0,6.0,22,0.00,,,0.00,Wunderground v.1.15,2013-02-19 09:05:00,
2013-02-19 04:10:00,22.5,-10.7,30.25,West,260,4.0,4.0,22,0.00,,,0.00,Wunderground v.1.15,2013-02-19 09:10:00,
2013-02-19 04:15:00,22.6,-10.6,30.25,West,272,4.0,5.0,22,0.00,,,0.00,Wunderground v.1.15,2013-02-19 09:15:00,
2013-02-19 04:20:00,22.5,-9.8,30.25,WSW,251,4.0,4.0,23,0.00,,,0.00,Wunderground v.1.15,2013-02-19 09:20:00,
2013-02-19 04:25:00,22.7,-10.5,30.25,WSW,240,4.0,5.0,22,0.00,,,0.00,Wunderground v.1.15,2013-02-19 09:25:00,
2013-02-19 04:30:00,22.9,-11.3,30.25,WSW,245,5.0,5.0,21,0.00,,,0.00,Wunderground v.1.15,2013-02-19 09:30:00,
2013-02-19 04:35:00,23.0,-11.2,30.25,SW,234,4.0,5.0,21,0.00,,,0.00,Wunderground v.1.15,2013-02-19 09:35:00,
2013-02-19 04:40:00,22.9,-11.3,30.25,WSW,244,4.0,4.0,21,0.00,,,0.00,Wunderground v.1.15,2013-02-19 09:40:00,
2013-02-19 04:45:00,22.9,-11.3,30.25,WSW,244,3.0,4.0,21,0.00,,,0.00,Wunderground v.1.15,2013-02-19 09:45:00,
2013-02-19 04:50:00,23.1,-12.1,30.25,WSW,237,4.0,8.0,20,0.00,,,0.00,Wunderground v.1.15,2013-02-19 09:50:00,
2013-02-19 04:55:00,23.2,-12.0,30.25,WSW,257,5.0,11.0,20,0.00,,,0.00,Wunderground v.1.15,2013-02-19 09:55:00,
2013-02-19 05:00:00,23.1,-12.1,30.25,SSW,213,6.0,6.0,20,0.00,,,0.00,Wunderground v.1.15,2013-02-19 10:00:00,
2013-02-19 05:10:00,23.4,-11.9,30.24,SW,232,5.0,5.0,20,0.00,,,0.00,Wunderground v.1.15,2013-02-19 10:10:00,
2013-02-19 05:15:00,23.4,-12.9,30.24,SW,221,5.0,5.0,19,0.00,,,0.00,Wunderground v.1.15,2013-02-19 10:15:00,
2013-02-19 05:20:00,23.4,-12.9,30.24,SW,235,5.0,5.0,19,0.00,,,0.00,Wunderground v.1.15,2013-02-19 10:20:00,
2013-02-19 05:30:00,23.2,-12.0,30.24,SW,219,5.0,5.0,20,0.00,,,0.00,Wunderground v.1.15,2013-02-19 10:30:00,
2013-02-19 05:35:00,23.3,-11.9,30.24,SW,233,6.0,6.0,20,0.00,,,0.00,Wunderground v.1.15,2013-02-19 10:35:00,
2013-02-19 05:40:00,23.3,-11.9,30.24,SW,222,6.0,6.0,20,0.00,,,0.00,Wunderground v.1.15,2013-02-19 10:40:00,
2013-02-19 05:45:00,23.6,-12.7,30.23,WSW,237,7.0,7.0,19,0.00,,,0.00,Wunderground v.1.15,2013-02-19 10:45:00,
2013-02-19 05:50:00,23.9,-12.5,30.23,SW,227,7.0,7.0,19,0.00,,,0.00,Wunderground v.1.15,2013-02-19 10:50:00,
2013-02-19 05:55:00,24.3,-13.2,30.23,SW,225,6.0,7.0,18,0.00,,,0.00,Wunderground v.1.15,2013-02-19 10:55:00,
2013-02-19 06:00:00,24.7,-14.0,30.23,WSW,242,5.0,5.0,17,0.00,,,0.00,Wunderground v.1.15,2013-02-19 11:00:00,
2013-02-19 06:05:00,24.8,-13.9,30.22,WSW,247,4.0,5.0,17,0.00,,,0.00,Wunderground v.1.15,2013-02-19 11:05:00,
2013-02-19 06:10:00,24.6,-13.0,30.22,WSW,250,2.0,2.0,18,0.00,,,0.00,Wunderground v.1.15,2013-02-19 11:10:00,
2013-02-19 06:15:00,23.9,-12.5,30.22,WNW,294,2.0,2.0,19,0.00,,,0.00,Wunderground v.1.15,2013-02-19 11:15:00,
2013-02-19 06:20:00,23.6,-13.8,30.23,WNW,294,2.0,2.0,18,0.00,,,0.00,Wunderground v.1.15,2013-02-19 11:20:00,
2013-02-19 06:25:00,23.6,-13.8,30.23,West,266,2.0,2.0,18,0.00,,,0.00,Wunderground v.1.15,2013-02-19 11:25:00,
2013-02-19 06:35:00,23.3,-13.0,30.23,WSW,238,3.0,5.0,19,0.00,,,0.00,Wunderground v.1.15,2013-02-19 11:35:00,
2013-02-19 06:40:00,24.1,-13.4,30.22,SW,232,3.0,3.0,18,0.00,,,0.00,Wunderground v.1.15,2013-02-19 11:40:00,
2013-02-19 06:45:00,24.2,-12.2,30.22,SW,232,2.0,3.0,19,0.00,,,0.00,Wunderground v.1.15,2013-02-19 11:45:00,
2013-02-19 06:50:00,24.4,-13.1,30.21,SW,232,1.0,1.0,18,0.00,,,0.00,Wunderground v.1.15,2013-02-19 11:50:00,
2013-02-19 06:55:00,24.4,-11.0,30.22,SW,232,1.0,2.0,20,0.00,,,0.00,Wunderground v.1.15,2013-02-19 11:55:00,
2013-02-19 07:00:00,22.9,-8.6,30.22,SW,232,1.0,1.0,24,0.00,,,0.00,Wunderground v.1.15,2013-02-19 12:00:00,
2013-02-19 07:05:00,22.3,-10.0,30.22,SW,232,1.0,1.0,23,0.00,,,0.00,Wunderground v.1.15,2013-02-19 12:05:00,
2013-02-19 07:10:00,22.2,-9.2,30.23,SW,232,0.0,0.0,24,0.00,,,0.00,Wunderground v.1.15,2013-02-19 12:10:00,
2013-02-19 07:15:00,22.2,-10.1,30.22,SW,232,0.0,1.0,23,0.00,,,0.00,Wunderground v.1.15,2013-02-19 12:15:00,
2013-02-19 07:20:00,22.3,-10.0,30.23,SW,232,1.0,3.0,23,0.00,,,0.00,Wunderground v.1.15,2013-02-19 12:20:00,
2013-02-19 07:25:00,22.3,-10.9,30.22,WSW,249,2.0,3.0,22,0.00,,,0.00,Wunderground v.1.15,2013-02-19 12:25:00,
2013-02-19 07:30:00,22.3,-10.0,30.22,WSW,249,1.0,1.0,23,0.00,,,0.00,Wunderground v.1.15,2013-02-19 12:30:00,
2013-02-19 07:35:00,22.2,-11.0,30.22,WSW,249,1.0,1.0,22,0.00,,,0.00,Wunderground v.1.15,2013-02-19 12:35:00,
2013-02-19 07:40:00,22.3,-10.0,30.22,WSW,249,1.0,1.0,23,0.00,,,0.00,Wunderground v.1.15,2013-02-19 12:40:00,
2013-02-19 07:45:00,22.4,-11.7,30.22,WSW,249,1.0,1.0,21,0.00,,,0.00,Wunderground v.1.15,2013-02-19 12:45:00,
2013-02-19 07:50:00,22.8,-11.4,30.22,WSW,249,1.0,2.0,21,0.00,,,0.00,Wunderground v.1.15,2013-02-19 12:50:00,
2013-02-19 08:00:00,23.5,-10.8,30.21,WSW,249,1.0,1.0,21,0.00,,,0.00,Wunderground v.1.15,2013-02-19 13:00:00,
2013-02-19 08:05:00,24.1,-9.3,30.21,WSW,249,1.0,1.0,22,0.00,,,0.00,Wunderground v.1.15,2013-02-19 13:05:00,
2013-02-19 08:10:00,24.8,-9.7,30.21,WSW,249,0.0,0.0,21,0.00,,,0.00,Wunderground v.1.15,2013-02-19 13:10:00,
2013-02-19 08:15:00,25.1,-10.4,30.21,WSW,249,0.0,1.0,20,0.00,,,0.00,Wunderground v.1.15,2013-02-19 13:15:00,
2013-02-19 08:20:00,25.2,-10.3,30.20,WSW,249,0.0,0.0,20,0.00,,,0.00,Wunderground v.1.15,2013-02-19 13:20:00,
2013-02-19 08:25:00,25.5,-10.1,30.20,WSW,249,0.0,1.0,20,0.00,,,0.00,Wunderground v.1.15,2013-02-19 13:25:00,
2013-02-19 08:30:00,25.7,-11.0,30.20,WSW,257,0.0,2.0,19,0.00,,,0.00,Wunderground v.1.15,2013-02-19 13:30:00,
2013-02-19 08:40:00,25.8,-8.8,30.20,WSW,257,1.0,1.0,21,0.00,,,0.00,Wunderground v.1.15,2013-02-19 13:40:00,
2013-02-19 08:45:00,26.0,-9.7,30.21,WSW,258,1.0,2.0,20,0.00,,,0.00,Wunderground v.1.15,2013-02-19 13:45:00,
2013-02-19 08:50:00,25.8,-8.8,30.20,West,259,1.0,1.0,21,0.00,,,0.00,Wunderground v.1.15,2013-02-19 13:50:00,
2013-02-19 08:55:00,25.8,-7.9,30.20,West,275,1.0,2.0,22,0.00,,,0.00,Wunderground v.1.15,2013-02-19 13:55:00,
2013-02-19 09:00:00,25.6,-7.1,30.20,West,279,2.0,2.0,23,0.00,,,0.00,Wunderground v.1.15,2013-02-19 14:00:00,
2013-02-19 09:05:00,25.8,-6.1,30.19,West,279,1.0,2.0,24,0.00,,,0.00,Wunderground v.1.15,2013-02-19 14:05:00,
2013-02-19 09:10:00,25.9,-7.8,30.19,West,279,1.0,2.0,22,0.00,,,0.00,Wunderground v.1.15,2013-02-19 14:10:00,
2013-02-19 09:15:00,26.1,-7.6,30.19,West,279,1.0,2.0,22,0.00,,,0.00,Wunderground v.1.15,2013-02-19 14:15:00,
2013-02-19 09:20:00,26.3,-7.5,30.20,West,279,1.0,1.0,22,0.00,,,0.00,Wunderground v.1.15,2013-02-19 14:20:00,
2013-02-19 09:25:00,27.0,-5.1,30.20,West,279,1.0,1.0,24,0.00,,,0.00,Wunderground v.1.15,2013-02-19 14:25:00,
2013-02-19 09:30:00,27.7,-6.3,30.20,West,279,0.0,1.0,22,0.00,,,0.00,Wunderground v.1.15,2013-02-19 14:30:00,
2013-02-19 09:35:00,28.0,-6.0,30.20,West,279,1.0,1.0,22,0.00,,,0.00,Wunderground v.1.15,2013-02-19 14:35:00,
2013-02-19 09:45:00,29.0,-5.2,30.20,West,279,1.0,2.0,22,0.00,,,0.00,Wunderground v.1.15,2013-02-19 14:45:00,
2013-02-19 09:50:00,29.2,-5.0,30.20,NW,306,1.0,1.0,22,0.00,,,0.00,Wunderground v.1.15,2013-02-19 14:50:00,
2013-02-19 09:55:00,29.6,-5.6,30.20,NW,306,1.0,1.0,21,0.00,,,0.00,Wunderground v.1.15,2013-02-19 14:55:00,
2013-02-19 10:00:00,30.2,-5.1,30.20,NW,306,0.0,0.0,21,0.00,,,0.00,Wunderground v.1.15,2013-02-19 15:00:00,
2013-02-19 10:05:00,30.4,-5.0,30.20,NE,51,1.0,1.0,21,0.00,,,0.00,Wunderground v.1.15,2013-02-19 15:05:00,
2013-02-19 10:15:00,30.6,-4.8,30.20,NNE,22,2.0,3.0,21,0.00,,,0.00,Wunderground v.1.15,2013-02-19 15:15:00,
2013-02-19 10:20:00,30.7,-2.8,30.20,NNE,22,2.0,2.0,23,0.00,,,0.00,Wunderground v.1.15,2013-02-19 15:20:00,
2013-02-19 10:25:00,31.4,-4.1,30.20,NNE,27,1.0,2.0,21,0.00,,,0.00,Wunderground v.1.15,2013-02-19 15:25:00,
2013-02-19 10:35:00,32.8,-4.0,30.20,ESE,103,1.0,2.0,20,0.00,,,0.00,Wunderground v.1.15,2013-02-19 15:35:00,
2013-02-19 10:40:00,32.9,-3.9,30.19,East,101,2.0,2.0,20,0.00,,,0.00,Wunderground v.1.15,2013-02-19 15:40:00,
2013-02-19 10:45:00,33.0,-2.8,30.19,East,100,2.0,2.0,21,0.00,,,0.00,Wunderground v.1.15,2013-02-19 15:45:00,
2013-02-19 10:50:00,33.4,-3.5,30.19,ESE,107,1.0,1.0,20,0.00,,,0.00,Wunderground v.1.15,2013-02-19 15:50:00,
2013-02-19 10:55:00,33.5,-2.3,30.18,ENE,70,2.0,2.0,21,0.00,,,0.00,Wunderground v.1.15,2013-02-19 15:55:00,
2013-02-19 11:00:00,33.2,-3.6,30.18,NNE,32,2.0,3.0,20,0.00,,,0.00,Wunderground v.1.15,2013-02-19 16:00:00,
2013-02-19 11:05:00,33.2,-2.6,30.18,NNE,30,3.0,4.0,21,0.00,,,0.00,Wunderground v.1.15,2013-02-19 16:05:00,
2013-02-19 11:10:00,33.5,-3.4,30.18,NNE,29,3.0,3.0,20,0.00,,,0.00,Wunderground v.1.15,2013-02-19 16:10:00,
2013-02-19 11:20:00,33.8,-3.1,30.17,NE,46,4.0,4.0,20,0.00,,,0.00,Wunderground v.1.15,2013-02-19 16:20:00,
2013-02-19 11:30:00,34.5,-2.5,30.17,NE,44,2.0,2.0,20,0.00,,,0.00,Wunderground v.1.15,2013-02-19 16:30:00,
2013-02-19 11:35:00,35.1,-2.0,30.17,NE,55,2.0,2.0,20,0.00,,,0.00,Wunderground v.1.15,2013-02-19 16:35:00,
2013-02-19 11:40:00,35.3,-1.9,30.17,NE,55,1.0,1.0,20,0.00,,,0.00,Wunderground v.1.15,2013-02-19 16:40:00,
2013-02-19 11:45:00,35.4,-2.9,30.17,NE,54,2.0,3.0,19,0.00,,,0.00,Wunderground v.1.15,2013-02-19 16:45:00,
2013-02-19 11:50:00,35.7,-1.5,30.17,NE,44,2.0,3.0,20,0.00,,,0.00,Wunderground v.1.15,2013-02-19 16:50:00,
2013-02-19 11:55:00,35.9,-2.4,30.17,ENE,71,2.0,3.0,19,0.00,,,0.00,Wunderground v.1.15,2013-02-19 16:55:00,
2013-02-19 12:00:00,36.2,-2.2,30.16,ENE,71,2.0,2.0,19,0.00,,,0.00,Wunderground v.1.15,2013-02-19 17:00:00,
2013-02-19 12:05:00,36.3,-2.1,30.16,East,96,1.0,2.0,19,0.00,,,0.00,Wunderground v.1.15,2013-02-19 17:05:00,
2013-02-19 12:15:00,36.7,-2.9,30.14,NE,44,2.0,4.0,18,0.00,,,0.00,Wunderground v.1.15,2013-02-19 17:15:00,
2013-02-19 12:25:00,36.7,-4.1,30.14,NE,45,2.0,3.0,17,0.00,,,0.00,Wunderground v.1.15,2013-02-19 17:25:00,
2013-02-19 12:30:00,37.1,-2.6,30.13,East,88,2.0,2.0,18,0.00,,,0.00,Wunderground v.1.15,2013-02-19 17:30:00,
2013-02-19 12:35:00,37.8,-3.2,30.13,East,88,1.0,2.0,17,0.00,,,0.00,Wunderground v.1.15,2013-02-19 17:35:00,
2013-02-19 12:40:00,38.5,-2.6,30.13,East,88,1.0,2.0,17,0.00,,,0.00,Wunderground v.1.15,2013-02-19 17:40:00,
2013-02-19 12:45:00,38.7,-1.3,30.11,East,88,1.0,3.0,18,0.00,,,0.00,Wunderground v.1.15,2013-02-19 17:45:00,
2013-02-19 12:50:00,38.8,0.0,30.11,ESE,109,2.0,2.0,19,0.00,,,0.00,Wunderground v.1.15,2013-02-19 17:50:00,
2013-02-19 12:55:00,39.2,1.4,30.12,ESE,109,2.0,2.0,20,0.00,,,0.00,Wunderground v.1.15,2013-02-19 17:55:00,
2013-02-19 13:00:00,39.5,3.7,30.12,West,272,2.0,3.0,22,0.00,,,0.00,Wunderground v.1.15,2013-02-19 18:00:00,
2013-02-19 13:10:00,39.4,4.6,30.11,SSW,194,2.0,2.0,23,0.00,,,0.00,Wunderground v.1.15,2013-02-19 18:10:00,
2013-02-19 13:15:00,39.3,3.6,30.12,WNW,282,2.0,2.0,22,0.00,,,0.00,Wunderground v.1.15,2013-02-19 18:15:00,
2013-02-19 13:20:00,39.7,5.8,30.11,WNW,282,1.0,1.0,24,0.00,,,0.00,Wunderground v.1.15,2013-02-19 18:20:00,
2013-02-19 13:25:00,39.9,6.9,30.11,WSW,242,1.0,4.0,25,0.00,,,0.00,Wunderground v.1.15,2013-02-19 18:25:00,
2013-02-19 13:30:00,39.1,4.4,30.10,ESE,118,3.0,6.0,23,0.00,,,0.00,Wunderground v.1.15,2013-02-19 18:30:00,
2013-02-19 13:35:00,38.7,6.7,30.10,South,189,4.0,6.0,26,0.00,,,0.00,Wunderground v.1.15,2013-02-19 18:35:00,
2013-02-19 13:40:00,38.8,3.1,30.09,ESE,106,3.0,3.0,22,0.00,,,0.00,Wunderground v.1.15,2013-02-19 18:40:00,
2013-02-19 13:45:00,39.0,7.0,30.10,SSE,147,2.0,3.0,26,0.00,,,0.00,Wunderground v.1.15,2013-02-19 18:45:00,
2013-02-19 13:50:00,39.1,4.4,30.09,SSE,148,2.0,6.0,23,0.00,,,0.00,Wunderground v.1.15,2013-02-19 18:50:00,
2013-02-19 13:55:00,38.4,3.8,30.09,SSE,165,4.0,6.0,23,0.00,,,0.00,Wunderground v.1.15,2013-02-19 18:55:00,
2013-02-19 14:00:00,37.9,3.3,30.08,ESE,107,5.0,5.0,23,0.00,,,0.00,Wunderground v.1.15,2013-02-19 19:00:00,
2013-02-19 14:10:00,37.5,5.7,30.08,SSE,157,3.0,3.0,26,0.00,,,0.00,Wunderground v.1.15,2013-02-19 19:10:00,
2013-02-19 14:20:00,37.2,3.7,30.09,South,180,5.0,5.0,24,0.00,,,0.00,Wunderground v.1.15,2013-02-19 19:20:00,
2013-02-19 14:25:00,37.2,3.7,30.08,SE,142,4.0,5.0,24,0.00,,,0.00,Wunderground v.1.15,2013-02-19 19:25:00,
2013-02-19 14:30:00,37.4,5.6,30.08,SE,135,2.0,2.0,26,0.00,,,0.00,Wunderground v.1.15,2013-02-19 19:30:00,
2013-02-19 14:35:00,37.6,6.6,30.08,SE,126,1.0,2.0,27,0.00,,,0.00,Wunderground v.1.15,2013-02-19 19:35:00,
2013-02-19 14:40:00,37.5,4.8,30.07,ESE,109,2.0,3.0,25,0.00,,,0.00,Wunderground v.1.15,2013-02-19 19:40:00,
2013-02-19 14:45:00,37.1,5.3,30.07,SE,130,3.0,4.0,26,0.00,,,0.00,Wunderground v.1.15,2013-02-19 19:45:00,
2013-02-19 14:50:00,36.8,5.1,30.07,East,91,4.0,4.0,26,0.00,,,0.00,Wunderground v.1.15,2013-02-19 19:50:00,
2013-02-19 14:55:00,36.4,5.5,30.07,SE,144,5.0,5.0,27,0.00,,,0.00,Wunderground v.1.15,2013-02-19 19:55:00,
2013-02-19 15:00:00,36.2,5.4,30.07,ESE,120,5.0,9.0,27,0.00,,,0.00,Wunderground v.1.15,2013-02-19 20:00:00,
2013-02-19 15:10:00,36.0,6.0,30.06,ESE,113,5.0,5.0,28,0.00,,,0.00,Wunderground v.1.15,2013-02-19 20:10:00,
2013-02-19 15:15:00,36.1,6.9,30.06,ENE,75,4.0,5.0,29,0.00,,,0.00,Wunderground v.1.15,2013-02-19 20:15:00,
2013-02-19 15:20:00,36.1,7.6,30.06,SE,132,4.0,4.0,30,0.00,,,0.00,Wunderground v.1.15,2013-02-19 20:20:00,
2013-02-19 15:25:00,36.1,6.9,30.05,ESE,119,3.0,4.0,29,0.00,,,0.00,Wunderground v.1.15,2013-02-19 20:25:00,
2013-02-19 15:30:00,36.0,6.8,30.05,SE,143,3.0,3.0,29,0.00,,,0.00,Wunderground v.1.15,2013-02-19 20:30:00,
2013-02-19 15:35:00,35.9,7.4,30.05,ENE,72,4.0,5.0,30,0.00,,,0.00,Wunderground v.1.15,2013-02-19 20:35:00,
2013-02-19 15:40:00,35.6,7.2,30.05,SE,142,5.0,5.0,30,0.00,,,0.00,Wunderground v.1.15,2013-02-19 20:40:00,
2013-02-19 15:45:00,35.6,8.6,30.04,East,97,5.0,5.0,32,0.00,,,0.00,Wunderground v.1.15,2013-02-19 20:45:00,
2013-02-19 15:50:00,35.4,9.1,30.04,SSE,149,5.0,9.0,33,0.00,,,0.00,Wunderground v.1.15,2013-02-19 20:50:00,
2013-02-19 15:55:00,35.2,9.6,30.04,East,99,6.0,9.0,34,0.00,,,0.00,Wunderground v.1.15,2013-02-19 20:55:00,
2013-02-19 16:00:00,35.1,10.2,30.03,ESE,103,5.0,5.0,35,0.00,,,0.00,Wunderground v.1.15,2013-02-19 21:00:00,
2013-02-19 16:05:00,35.0,10.7,30.03,SE,140,4.0,9.0,36,0.00,,,0.00,Wunderground v.1.15,2013-02-19 21:05:00,
2013-02-19 16:10:00,34.8,11.1,30.03,SE,124,3.0,3.0,37,0.00,,,0.00,Wunderground v.1.15,2013-02-19 21:10:00,
2013-02-19 16:20:00,34.6,11.6,30.01,SSE,148,5.0,10.0,38,0.00,,,0.00,Wunderground v.1.15,2013-02-19 21:20:00,
2013-02-19 16:30:00,34.3,11.9,30.01,SE,141,5.0,5.0,39,0.00,,,0.00,Wunderground v.1.15,2013-02-19 21:30:00,
2013-02-19 16:35:00,34.3,12.4,30.01,East,88,3.0,5.0,40,0.00,,,0.00,Wunderground v.1.15,2013-02-19 21:35:00,
2013-02-19 16:40:00,34.2,12.9,30.01,East,84,2.0,4.0,41,0.00,,,0.00,Wunderground v.1.15,2013-02-19 21:40:00,
2013-02-19 16:45:00,34.0,13.8,30.00,East,86,3.0,4.0,43,0.00,,,0.00,Wunderground v.1.15,2013-02-19 21:45:00,
2013-02-19 16:50:00,34.0,15.9,30.00,East,101,3.0,4.0,47,0.00,,,0.00,Wunderground v.1.15,2013-02-19 21:50:00,
2013-02-19 16:55:00,33.9,18.1,29.99,SE,124,3.0,4.0,52,0.00,,,0.00,Wunderground v.1.15,2013-02-19 21:55:00,
2013-02-19 17:00:00,33.9,18.6,29.99,East,82,2.0,2.0,53,0.00,,,0.00,Wunderground v.1.15,2013-02-19 22:00:00,
2013-02-19 17:05:00,33.7,20.1,29.99,East,87,2.0,5.0,57,0.00,,,0.00,Wunderground v.1.15,2013-02-19 22:05:00,
2013-02-19 17:10:00,33.4,21.4,30.00,ENE,71,2.0,2.0,61,0.00,,,0.00,Wunderground v.1.15,2013-02-19 22:10:00,
2013-02-19 17:15:00,33.1,22.2,29.99,NE,55,3.0,3.0,64,0.00,,,0.00,Wunderground v.1.15,2013-02-19 22:15:00,
2013-02-19 17:20:00,32.7,21.9,29.99,ENE,69,2.0,3.0,64,0.00,,,0.00,Wunderground v.1.15,2013-02-19 22:20:00,
2013-02-19 17:25:00,32.5,22.0,29.99,ENE,63,2.0,3.0,65,0.00,,,0.00,Wunderground v.1.15,2013-02-19 22:25:00,
2013-02-19 17:30:00,32.3,22.9,29.99,ENE,57,2.0,2.0,68,0.00,,,0.00,Wunderground v.1.15,2013-02-19 22:30:00,
2013-02-19 17:35:00,32.0,23.7,29.99,NE,55,2.0,2.0,71,0.00,,,0.00,Wunderground v.1.15,2013-02-19 22:35:00,
2013-02-19 17:40:00,31.8,24.1,29.99,NE,56,1.0,1.0,73,0.00,,,0.00,Wunderground v.1.15,2013-02-19 22:40:00,
2013-02-19 17:45:00,31.5,24.8,29.99,NE,56,1.0,2.0,76,0.00,,,0.00,Wunderground v.1.15,2013-02-19 22:45:00,
2013-02-19 17:50:00,31.1,24.7,29.99,NE,56,1.0,2.0,77,0.00,,,0.00,Wunderground v.1.15,2013-02-19 22:50:00,
2013-02-19 17:55:00,30.5,25.1,29.98,NE,52,2.0,3.0,80,0.00,,,0.00,Wunderground v.1.15,2013-02-19 22:55:00,
2013-02-19 18:00:00,30.1,25.0,29.98,NE,52,2.0,2.0,81,0.00,,,0.00,Wunderground v.1.15,2013-02-19 23:00:00,
2013-02-19 18:05:00,29.9,24.8,29.98,NE,52,1.0,2.0,81,0.00,,,0.00,Wunderground v.1.15,2013-02-19 23:05:00,
2013-02-19 18:10:00,29.7,24.9,29.97,East,88,1.0,1.0,82,0.00,,,0.00,Wunderground v.1.15,2013-02-19 23:10:00,
2013-02-19 18:15:00,29.5,24.7,29.97,East,88,2.0,2.0,82,0.00,,,0.00,Wunderground v.1.15,2013-02-19 23:15:00,
2013-02-19 18:25:00,29.3,25.1,29.96,East,88,1.0,2.0,84,0.00,,,0.00,Wunderground v.1.15,2013-02-19 23:25:00,
2013-02-19 18:30:00,29.1,25.2,29.96,East,88,1.0,1.0,85,0.00,,,0.00,Wunderground v.1.15,2013-02-19 23:30:00,
2013-02-19 18:35:00,28.9,25.2,29.95,East,88,1.0,1.0,86,0.00,,,0.00,Wunderground v.1.15,2013-02-19 23:35:00,
2013-02-19 18:40:00,28.8,25.4,29.95,East,87,2.0,2.0,87,0.00,,,0.00,Wunderground v.1.15,2013-02-19 23:40:00,
2013-02-19 18:45:00,28.7,25.6,29.95,East,80,2.0,2.0,88,0.00,,,0.00,Wunderground v.1.15,2013-02-19 23:45:00,
2013-02-19 18:50:00,28.5,25.4,29.94,ENE,77,2.0,2.0,88,0.00,,,0.00,Wunderground v.1.15,2013-02-19 23:50:00,
2013-02-19 19:00:00,28.4,25.8,29.94,ENE,77,1.0,1.0,90,0.00,,,0.00,Wunderground v.1.15,2013-02-20 00:00:00,
2013-02-19 19:05:00,28.4,25.8,29.93,ENE,63,1.0,2.0,90,0.00,,,0.00,Wunderground v.1.15,2013-02-20 00:05:00,
2013-02-19 19:10:00,28.4,25.8,29.93,ENE,59,2.0,3.0,90,0.00,,,0.00,Wunderground v.1.15,2013-02-20 00:10:00,
2013-02-19 19:15:00,28.3,26.0,29.92,ENE,59,2.0,3.0,91,0.00,,,0.00,Wunderground v.1.15,2013-02-20 00:15:00,
2013-02-19 19:20:00,28.3,26.0,29.92,ENE,59,2.0,2.0,91,0.00,,,0.00,Wunderground v.1.15,2013-02-20 00:20:00,
2013-02-19 19:25:00,28.3,26.0,29.92,ENE,59,2.0,2.0,91,0.00,,,0.00,Wunderground v.1.15,2013-02-20 00:25:00,
2013-02-19 19:30:00,28.2,26.2,29.91,ENE,59,2.0,2.0,92,0.00,,,0.00,Wunderground v.1.15,2013-02-20 00:30:00,
2013-02-19 19:35:00,28.1,26.1,29.91,ENE,59,2.0,2.0,92,0.00,,,0.00,Wunderground v.1.15,2013-02-20 00:35:00,
2013-02-19 19:40:00,28.1,26.1,29.90,ENE,59,2.0,2.0,92,0.00,,,0.00,Wunderground v.1.15,2013-02-20 00:40:00,
2013-02-19 19:45:00,28.1,26.1,29.90,ENE,59,1.0,2.0,92,0.00,,,0.00,Wunderground v.1.15,2013-02-20 00:45:00,
2013-02-19 19:50:00,28.1,26.1,29.90,ENE,59,1.0,1.0,92,0.00,,,0.00,Wunderground v.1.15,2013-02-20 00:50:00,
2013-02-19 19:55:00,28.1,26.1,29.89,ENE,59,1.0,1.0,92,0.00,,,0.00,Wunderground v.1.15,2013-02-20 00:55:00,
2013-02-19 20:00:00,28.1,26.1,29.90,ENE,59,0.0,0.0,92,0.00,,,0.00,Wunderground v.1.15,2013-02-20 01:00:00,
2013-02-19 20:05:00,28.1,26.1,29.89,ENE,59,1.0,1.0,92,0.00,,,0.00,Wunderground v.1.15,2013-02-20 01:05:00,
2013-02-19 20:15:00,28.1,26.1,29.88,ENE,59,1.0,1.0,92,0.00,,,0.00,Wunderground v.1.15,2013-02-20 01:15:00,
2013-02-19 20:20:00,28.2,26.4,29.88,ENE,59,0.0,0.0,93,0.00,,,0.00,Wunderground v.1.15,2013-02-20 01:20:00,
2013-02-19 20:25:00,28.2,26.4,29.87,ENE,59,0.0,0.0,93,0.00,,,0.00,Wunderground v.1.15,2013-02-20 01:25:00,
2013-02-19 20:30:00,28.2,26.4,29.87,ENE,59,0.0,1.0,93,0.00,,,0.00,Wunderground v.1.15,2013-02-20 01:30:00,
2013-02-19 20:35:00,28.1,26.1,29.87,ENE,59,1.0,1.0,92,0.00,,,0.00,Wunderground v.1.15,2013-02-20 01:35:00,
2013-02-19 20:40:00,28.1,26.3,29.87,ENE,59,1.0,1.0,93,0.00,,,0.00,Wunderground v.1.15,2013-02-20 01:40:00,
2013-02-19 20:45:00,28.1,26.3,29.86,ENE,59,1.0,1.0,93,0.00,,,0.00,Wunderground v.1.15,2013-02-20 01:45:00,
2013-02-19 20:50:00,28.1,26.3,29.86,ENE,59,1.0,1.0,93,0.00,,,0.00,Wunderground v.1.15,2013-02-20 01:50:00,
2013-02-19 20:55:00,28.1,26.3,29.85,ENE,59,1.0,1.0,93,0.00,,,0.00,Wunderground v.1.15,2013-02-20 01:55:00,
2013-02-19 21:00:00,28.2,26.4,29.85,ENE,59,1.0,1.0,93,0.00,,,0.00,Wunderground v.1.15,2013-02-20 02:00:00,
2013-02-19 21:05:00,28.2,26.4,29.84,ENE,59,1.0,1.0,93,0.00,,,0.00,Wunderground v.1.15,2013-02-20 02:05:00,
2013-02-19 21:10:00,28.3,26.5,29.84,ENE,59,1.0,1.0,93,0.00,,,0.00,Wunderground v.1.15,2013-02-20 02:10:00,
2013-02-19 21:15:00,28.4,26.9,29.83,ENE,59,0.0,1.0,94,0.00,,,0.00,Wunderground v.1.15,2013-02-20 02:15:00,
2013-02-19 21:20:00,28.5,27.0,29.82,ENE,59,0.0,1.0,94,0.00,,,0.00,Wunderground v.1.15,2013-02-20 02:20:00,
2013-02-19 21:25:00,28.7,27.2,29.83,ENE,59,0.0,1.0,94,0.00,,,0.00,Wunderground v.1.15,2013-02-20 02:25:00,
2013-02-19 21:30:00,28.9,27.4,29.81,ENE,59,0.0,3.0,94,0.00,,,0.00,Wunderground v.1.15,2013-02-20 02:30:00,
2013-02-19 21:40:00,28.8,27.0,29.82,ENE,59,1.0,1.0,93,0.00,,,0.00,Wunderground v.1.15,2013-02-20 02:40:00,
2013-02-19 21:45:00,28.8,27.0,29.81,ENE,59,1.0,1.0,93,0.00,,,0.00,Wunderground v.1.15,2013-02-20 02:45:00,
2013-02-19 21:50:00,28.9,27.4,29.81,ENE,59,0.0,0.0,94,0.00,,,0.00,Wunderground v.1.15,2013-02-20 02:50:00,
2013-02-19 21:55:00,28.9,27.4,29.80,ENE,59,1.0,1.0,94,0.00,,,0.00,Wunderground v.1.15,2013-02-20 02:55:00,
2013-02-19 22:00:00,29.0,27.5,29.77,ENE,59,1.0,1.0,94,0.00,,,0.00,Wunderground v.1.15,2013-02-20 03:00:00,
2013-02-19 22:05:00,29.1,27.6,29.78,ENE,59,1.0,1.0,94,0.00,,,0.00,Wunderground v.1.15,2013-02-20 03:05:00,
2013-02-19 22:10:00,29.3,27.8,29.77,ENE,59,1.0,1.0,94,0.00,,,0.00,Wunderground v.1.15,2013-02-20 03:10:00,
2013-02-19 22:20:00,29.5,28.0,29.77,ENE,59,0.0,0.0,94,0.00,,,0.00,Wunderground v.1.15,2013-02-20 03:20:00,
2013-02-19 22:25:00,29.8,28.3,29.78,ENE,59,0.0,1.0,94,0.00,,,0.00,Wunderground v.1.15,2013-02-20 03:25:00,
2013-02-19 22:30:00,29.8,28.3,29.78,ENE,59,1.0,1.0,94,0.00,,,0.00,Wunderground v.1.15,2013-02-20 03:30:00,
2013-02-19 22:35:00,30.0,28.5,29.76,ENE,59,1.0,1.0,94,0.00,,,0.00,Wunderground v.1.15,2013-02-20 03:35:00,
2013-02-19 22:45:00,30.4,28.9,29.75,ENE,59,0.0,0.0,94,0.00,,,0.00,Wunderground v.1.15,2013-02-20 03:45:00,
2013-02-19 22:55:00,30.3,28.8,29.76,ENE,59,0.0,1.0,94,0.00,,,0.00,Wunderground v.1.15,2013-02-20 03:55:00,
2013-02-19 23:00:00,30.4,28.9,29.75,ENE,59,1.0,1.0,94,0.00,,,0.00,Wunderground v.1.15,2013-02-20 04:00:00,
2013-02-19 23:05:00,30.5,29.0,29.74,ENE,59,0.0,1.0,94,0.00,,,0.00,Wunderground v.1.15,2013-02-20 04:05:00,
2013-02-19 23:15:00,30.6,29.1,29.75,ENE,59,1.0,2.0,94,0.00,,,0.00,Wunderground v.1.15,2013-02-20 04:15:00,
2013-02-19 23:25:00,30.7,29.2,29.74,NE,53,1.0,2.0,94,0.00,,,0.00,Wunderground v.1.15,2013-02-20 04:25:00,
2013-02-19 23:35:00,30.9,29.4,29.73,NE,53,1.0,1.0,94,0.00,,,0.00,Wunderground v.1.15,2013-02-20 04:35:00,
2013-02-19 23:40:00,30.9,29.4,29.72,NE,53,1.0,1.0,94,0.00,,,0.01,Wunderground v.1.15,2013-02-20 04:40:00,
2013-02-19 23:45:00,31.0,29.5,29.72,NE,53,1.0,1.0,94,0.00,,,0.01,Wunderground v.1.15,2013-02-20 04:45:00,
2013-02-19 23:50:00,31.1,29.6,29.71,NE,53,0.0,0.0,94,0.00,,,0.01,Wunderground v.1.15,2013-02-20 04:50:00,
2013-02-19 23:55:00,31.2,29.7,29.71,NE,53,0.0,0.0,94,0.00,,,0.01,Wunderground v.1.15,2013-02-20 04:55:00,